DW1410 Paimio FI current weather conditions

sailwx.info

Wind from 133 at 0 knots gusting 6

Air temperature 3.9° C
Dewpoint 3.0° C

Last reported at 2019-Oct-15 18:01 UTC.
Time now 2019-Oct-15 18:32 UTC

Location: N 60°28' E 022°42'.
View on Google Maps.

See reports from other nearby stations

  
Tides and Currents Weather Stations Pressure Air Temp Water Temp Dewpoint Dewpoint Depression Visibility Wind Speed Wind Dir Waves Ship Positions
date/time (UTC)wind fromknots sea level pressurealtimeterstation pressurevisibilityair tempwater tempwave heightnotes
2019-Oct-15 18:01 133 0 gusting 6 3.9
2019-Oct-15 17:46 082 3.9
2019-Oct-15 17:32 061 1 gusting 7 3.9
2019-Oct-15 17:16 092 0 gusting 5 3.9
2019-Oct-15 17:01 165 0 gusting 6 4.4
2019-Oct-15 16:46 138 1 gusting 3 3.9
2019-Oct-15 16:32 092 3.9
2019-Oct-15 16:16 073 1 gusting 5 3.9
2019-Oct-15 16:02 071 3.9
2019-Oct-15 15:46 076 3.9
2019-Oct-15 15:16 071 1 gusting 4 3.9
2019-Oct-15 15:02 088 0 gusting 2 3.9
2019-Oct-15 14:46 088 4.4
2019-Oct-15 14:31 088 4.4
2019-Oct-15 14:17 088 4.4
2019-Oct-15 14:01 088 4.4
2019-Oct-15 13:46 102 0 gusting 2 4.4
2019-Oct-15 13:31 095 4.4
2019-Oct-15 13:16 097 5.0
2019-Oct-15 13:02 096 5.0
2019-Oct-15 12:46 107 5.0
2019-Oct-15 12:32 105 0 gusting 3 5.0
2019-Oct-15 12:16 122 5.0
2019-Oct-15 12:01 087 0 gusting 3 5.0
2019-Oct-15 11:46 106 4.4
2019-Oct-15 11:31 161 0 gusting 4 4.4
2019-Oct-15 11:16 088 2 gusting 5 4.4
2019-Oct-15 11:01 079 0 gusting 3 3.9
2019-Oct-15 10:45 091 0 gusting 3 3.9
2019-Oct-15 10:31 104 1 gusting 3 3.9
2019-Oct-15 10:16 111 0 gusting 4 3.9
2019-Oct-15 10:00 152 1 gusting 4 4.4
2019-Oct-15 09:46 172 3 gusting 6 4.4
2019-Oct-15 09:31 144 1 gusting 5 3.9
2019-Oct-15 09:16 117 0 gusting 4 3.3
2019-Oct-15 09:01 100 0 gusting 4 2.8
2019-Oct-15 08:46 148 0 gusting 5 2.8
2019-Oct-15 08:30 133 0 gusting 4 2.2
2019-Oct-15 08:15 134 0 gusting 6 0.6
2019-Oct-15 08:00 150 0 gusting 2 0.6
2019-Oct-15 07:45 085 0 gusting 2 -0.0
2019-Oct-15 07:30 022 -1.1
2019-Oct-15 07:15 022 -1.7
2019-Oct-15 07:00 022 -2.2
2019-Oct-15 06:45 022 -2.2
2019-Oct-15 06:30 022 -2.2
2019-Oct-15 06:15 350 -2.8
2019-Oct-15 06:02 350 -2.8
2019-Oct-15 05:46 350 -3.3
2019-Oct-15 05:31 350 -3.3
2019-Oct-15 05:16 350 -3.3
2019-Oct-15 05:02 350 -3.3
2019-Oct-15 04:47 350 -3.3
2019-Oct-15 04:31 350 -3.3
2019-Oct-15 04:16 350 -3.3
2019-Oct-15 04:01 350 -3.3
2019-Oct-15 03:46 350 -3.3
2019-Oct-15 03:31 350 -3.3
2019-Oct-15 03:16 350 -3.3
2019-Oct-15 03:02 350 -2.8
2019-Oct-15 02:46 350 -2.8
2019-Oct-15 02:31 350 -3.3
2019-Oct-15 02:16 350 -2.8
2019-Oct-15 02:01 350 -2.8
2019-Oct-15 01:45 350 -2.8
2019-Oct-15 01:31 350 -2.8
2019-Oct-15 01:16 350 -2.2
2019-Oct-15 01:00 350 -2.8
2019-Oct-15 00:45 350 -2.2
2019-Oct-15 00:30 350 -2.2
2019-Oct-15 00:15 350 -2.2
2019-Oct-15 00:00 350 -2.2
2019-Oct-14 23:45 350 -2.2
2019-Oct-14 23:30 350 -2.2
2019-Oct-14 23:15 350 -1.7
2019-Oct-14 23:00 350 -1.7
2019-Oct-14 22:45 350 -1.7
2019-Oct-14 22:30 350 -1.7
2019-Oct-14 22:15 350 -1.7
2019-Oct-14 21:46 350 -1.1
2019-Oct-14 21:16 350 -0.6
2019-Oct-14 21:01 350 -0.0
2019-Oct-14 20:46 350 -0.0
2019-Oct-14 20:31 350 0.6
2019-Oct-14 20:16 350 0.6
2019-Oct-14 20:01 350 1.1
2019-Oct-14 19:46 350 1.7
2019-Oct-14 19:30 350 2.2
2019-Oct-14 19:16 350 2.8
2019-Oct-14 19:00 351 3.3
2019-Oct-14 18:46 082 3.9
2019-Oct-14 18:30 348 0 gusting 3 3.9
2019-Oct-14 18:00 344 0 gusting 4 3.9
2019-Oct-14 17:30 011 3.9
2019-Oct-14 17:15 024 4.4
2019-Oct-14 17:00 355 4.4
2019-Oct-14 16:45 005 4.4
2019-Oct-14 16:30 005 4.4
2019-Oct-14 16:15 076 0 gusting 4 4.4
2019-Oct-14 16:00 005 0 gusting 2 4.4
2019-Oct-14 15:45 355 5.0
2019-Oct-14 15:30 022 5.0
2019-Oct-14 15:15 035 5.0
2019-Oct-14 15:00 032 0 gusting 4 5.0
2019-Oct-14 14:45 071 0 gusting 3 5.0
2019-Oct-14 14:30 017 0 gusting 4 5.0
2019-Oct-14 14:15 082 1 gusting 5 5.6
2019-Oct-14 14:00 026 0 gusting 5 5.6
2019-Oct-14 13:46 049 0 gusting 6 5.6
2019-Oct-14 13:32 097 0 gusting 6 5.6
2019-Oct-14 13:17 065 0 gusting 4 5.6
2019-Oct-14 13:02 217 1 gusting 4 5.6
2019-Oct-14 12:47 088 2 gusting 7 5.6
2019-Oct-14 12:31 014 2 gusting 8 6.1
2019-Oct-14 12:17 076 2 gusting 6 5.6
2019-Oct-14 12:01 074 1 gusting 6 6.1
2019-Oct-14 11:46 049 5.6
2019-Oct-14 11:31 070 0 gusting 9 5.6
2019-Oct-14 11:16 121 1 gusting 5 5.6
2019-Oct-14 11:01 027 2 gusting 8 5.6
2019-Oct-14 10:46 080 0 gusting 8 5.6
2019-Oct-14 10:31 076 2 gusting 5 5.0
2019-Oct-14 10:16 071 0 gusting 4 5.0
2019-Oct-14 10:01 036 0 gusting 4 5.0
2019-Oct-14 09:46 040 0 gusting 5 5.0
2019-Oct-14 09:31 092 0 gusting 5 5.0
2019-Oct-14 09:16 052 0 gusting 3 5.0
2019-Oct-14 09:01 098 0 gusting 3 5.0
2019-Oct-14 08:46 074 0 gusting 5 4.4
2019-Oct-14 08:30 055 0 gusting 6 4.4
2019-Oct-14 08:15 072 1 gusting 5 4.4
2019-Oct-14 08:01 074 0 gusting 5 4.4
2019-Oct-14 07:45 072 2 gusting 11 3.9
2019-Oct-14 07:30 094 2 gusting 7 3.9
2019-Oct-14 07:15 064 0 gusting 4 3.9
2019-Oct-14 07:00 080 1 gusting 6 3.3
2019-Oct-14 06:45 066 0 gusting 4 3.3
2019-Oct-14 06:30 078 1 gusting 5 3.3
2019-Oct-14 06:15 065 3.3
2019-Oct-14 06:00 077 0 gusting 6 2.8
2019-Oct-14 05:45 078 1 gusting 4 2.8
2019-Oct-14 05:30 078 0 gusting 3 2.8
2019-Oct-14 05:15 077 1 gusting 4 2.2
2019-Oct-14 05:01 077 0 gusting 3 2.2
2019-Oct-14 04:47 065 1 gusting 3 2.8
2019-Oct-14 04:32 078 2.2
2019-Oct-14 04:17 079 0 gusting 4 2.2
2019-Oct-14 04:02 041 0 gusting 3 1.7
2019-Oct-14 03:47 071 0 gusting 4 1.7
2019-Oct-14 03:31 069 1 gusting 3 1.7
2019-Oct-14 03:16 076 0 gusting 3 1.7
2019-Oct-14 03:00 074 0 gusting 4 1.7
2019-Oct-14 02:46 069 1 gusting 3 1.7
2019-Oct-14 02:31 057 1 gusting 3 1.1
2019-Oct-14 02:15 080 0 gusting 2 1.1
2019-Oct-14 02:01 078 0 gusting 3 1.1
2019-Oct-14 01:31 040 0 gusting 1 0.6
2019-Oct-14 01:15 342 -0.0
2019-Oct-14 01:00 342 -0.0
2019-Oct-14 00:45 286 -0.0
2019-Oct-14 00:30 286 -0.6
2019-Oct-14 00:15 286 -0.6
2019-Oct-14 00:00 286 -1.1
2019-Oct-13 23:46 286 -0.6
2019-Oct-13 23:30 286 -0.6
2019-Oct-13 23:15 286 -0.6
2019-Oct-13 23:00 286 -0.6
2019-Oct-13 22:45 286 -0.6
2019-Oct-13 22:15 286 -0.0
2019-Oct-13 22:00 286 -0.0
2019-Oct-13 21:47 286 -0.0
2019-Oct-13 21:32 286 -0.0
2019-Oct-13 21:16 286 0.6
2019-Oct-13 21:01 286 0.6
2019-Oct-13 20:46 286 0.6
2019-Oct-13 20:31 286 1.1
2019-Oct-13 20:16 286 1.1
2019-Oct-13 20:01 286 1.1
2019-Oct-13 19:47 286 1.1
2019-Oct-13 19:31 286 1.1
2019-Oct-13 19:19 286 1.7
2019-Oct-13 19:01 286 1.7
2019-Oct-13 18:45 286 1.7
2019-Oct-13 18:31 286 1.7
2019-Oct-13 18:15 286 2.2
2019-Oct-13 18:00 286 2.2